Location: Newark
(29.9790°N, 31.1340°E)
Time: 13:36:57
(UTC+00:00)

Explorer 7 - Visible Passes

Search period start: 19 January 2020 00:00
Search period end: 29 January 2020 00:00
Orbit: 485 x 679 km, 50.3° (Epoch: 19 January)

Date Brightness Start Highest point End Pass type
(mag) Time Alt. Az. Time Alt. Az. Time Alt. Az.
21 Jan 9.3 03:23:11 10° N 03:25:01 13° NNE 03:26:54 10° ENE visible
22 Jan 9.0 03:27:36 11° N 03:30:12 19° NE 03:33:15 10° E visible
23 Jan 8.3 03:32:33 15° NNW 03:35:16 30° NE 03:39:03 10° E visible
24 Jan 7.4 03:37:33 19° NNW 03:40:16 52° NE 03:44:27 10° ESE visible
25 Jan 10.0 02:06:19 10° ENE 02:06:19 10° ENE 02:06:27 10° ENE visible
25 Jan 6.7 03:42:39 22° NW 03:45:11 84° SW 03:49:29 10° SE visible
26 Jan 9.6 02:11:29 15° ENE 02:11:29 15° ENE 02:12:39 10° E visible
26 Jan 7.3 03:47:50 22° WNW 03:50:04 43° SW 03:54:08 10° SSE visible
27 Jan 9.3 02:16:45 20° E 02:16:45 20° E 02:18:19 10° ESE visible
27 Jan 8.2 03:53:06 17° W 03:54:53 23° SW 03:58:16 10° S visible
28 Jan 9.1 02:22:05 21° ESE 02:22:05 21° ESE 02:23:36 10° SE visible
28 Jan 8.9 03:58:27 11° WSW 03:59:40 12° SW 04:01:24 10° SSW visible
28 Jan 9.5 17:52:20 10° SW 17:52:48 13° SW 17:52:48 13° SW visible
